Regional Weather Roundup
Issued by NWS Cleveland, OH

Home | Current Version | Previous Version | Graphics & Text | Print | Product List | Glossary On
Versions: 1 2 3 4 5 6 7 8 9 10 11 12 13 14 15 16 17 18 19 20 21 22 23 24 25 26 27 28 29 30 31 32 33 34 35 36 37 38 39 40 41 42 43 44 45 46 47 48 49 50
000
ASUS41 KCLE 300000
RWRCLE
OHIO REGIONAL WEATHER ROUNDUP
NATIONAL WEATHER SERVICE WILMINGTON, OH
800 PM EDT THU SEP 29 2016

NOTE: "FAIR" INDICATES FEW OR NO CLOUDS BELOW 12,000 FEET WITH NO
SIGNIFICANT WEATHER AND/OR OBSTRUCTIONS TO VISIBILITY.

OHZ001>008-015>018-024>027-034-035-043-044-300100-
   NORTHWEST OHIO

CITY           SKY/WX    TMP DP  RH WIND       PRES   REMARKS
DEFIANCE       CLOUDY    62  58  86 N13       30.12F
FINDLAY        CLOUDY    61  58  90 CALM      30.09S
TOLEDO EXPRESS LGT RAIN  61  61 100 NE13      30.12S
TOLEDO EXEC    LGT RAIN  62  62 100 NE5       30.12F FOG
LIMA           CLOUDY    60  59  96 N5        30.10S
$$

OHZ009>014-019>023-028>033-038-089-300100-
   NORTHEAST OHIO

CITY           SKY/WX    TMP DP  RH WIND       PRES   REMARKS
CLE-HOPKINS    MOCLDY    63  57  81 E13       30.13R
CLE-LAKEFRONT  CLOUDY    63  60  90 E12       30.11R
CUY CO. ARPT   MOCLDY    63  63 100 E14       30.14S
LORAIN-ELYRIA  NOT AVBL
ASHTABULA      CLOUDY    64  58  80 E10       30.20R
AKRON-CANTON   LGT RAIN  60  56  86 E15       30.14R
WOOSTER        NOT AVBL
MANSFIELD      CLOUDY    60  60 100 NE5       30.11R
YOUNGSTOWN     CLOUDY    62  57  83 E9G26     30.17F
$$

OHZ042-051>053-060>062-070>072-077>081-300100-
  SOUTHWEST OHIO

CITY           SKY/WX    TMP DP  RH WIND       PRES   REMARKS
CINC-COVINGTON MOCLDY    59  55  87 CALM      30.08R
CINC-LUNKEN    FAIR      57  57 100 S3        30.09R
HAMILTON       FAIR      58  55  90 CALM      30.08S
DAYTON         NOT AVBL
WRIGHT-PAT AFB NOT AVBL
DAYTON GENERAL MOCLDY    59  54  83 N8        30.08R
WILMINGTON     RAIN      58  55  90 N5        30.09R
$$

OHZ036-037-039>041-045>050-054>059-063>069-073>076-082>088-300100-
  CENTRAL AND SOUTHEAST OHIO

CITY           SKY/WX    TMP DP  RH WIND       PRES   REMARKS
COLUMBUS       CLOUDY    62  61  96 CALM      30.07S
OSU AIRPORT    MOCLDY    60  59  96 NW8       30.08R
BOLTON FIELD   NOT AVBL
RICKENBACK AFB NOT AVBL
NEWARK         LGT RAIN  61  60  97 CALM      30.06F
MARION         MOCLDY    59  57  93 N5        30.09F
LANCASTER      FAIR      61  60  97 NW6       30.07R
ZANESVILLE     FAIR      61  59  93 N6        30.08R
NEW PHILLY     LGT RAIN  60  59  96 E3        30.12R
$$




USA.gov is the U.S. government's official web portal to all federal, state and local government web resources and services.